LRCK Weather Reports


Display with metric or nautical units.
time (UTC)temp
F
wind
direction
speed
MPH
gust
MPH
rain 1hr
in
rain 24hr
in
rain mn
in
humidity
%
barometer
mb
20260504180317 50 0 0.0 0.0 0.00 0.00 0.00 62 1015.0
20260504174817 52 0 0.0 0.0 0.00 0.00 0.00 58 1015.0
20260504173317 52 0 0.0 0.0 0.00 0.00 0.00 58 1015.0
20260504171817 54 100 5.0 0.0 0.00 0.00 0.00 54 1015.0
20260504170317 54 100 5.0 0.0 0.00 0.00 0.00 54 1015.0
20260504160318 57 90 8.0 0.0 0.00 0.00 0.00 51 1015.0
20260504150317 63 60 14.0 0.0 0.00 0.00 0.00 37 1014.0
20260504140318 64 20 11.0 0.0 0.00 0.00 0.00 34 1014.0
20260504130317 63 20 14.0 0.0 0.00 0.00 0.00 37 1014.0
20260504120316 63 30 13.0 0.0 0.00 0.00 0.00 34 1015.0
20260504110317 64 30 14.0 0.0 0.00 0.00 0.00 37 1015.0
20260504100317 63 10 15.0 0.0 0.00 0.00 0.00 34 1015.0
20260504081817 59 10 10.0 0.0 0.00 0.00 0.00 45 1016.0
20260504080317 59 10 10.0 0.0 0.00 0.00 0.00 45 1016.0
20260504070318 57 360 9.0 0.0 0.00 0.00 0.00 48 1015.0
20260504050327 43 300 7.0 0.0 0.00 0.00 0.00 76 1015.0
20260504044817 41 290 9.0 0.0 0.00 0.00 0.00 81 1015.0
20260504043317 41 290 9.0 0.0 0.00 0.00 0.00 81 1015.0
20260504041817 39 290 10.0 0.0 0.00 0.00 0.00 87 1015.0
20260504040317 39 290 10.0 0.0 0.00 0.00 0.00 87 1015.0
20260504034817 39 290 10.0 0.0 0.00 0.00 0.00 81 1014.0
20260504033317 39 290 10.0 0.0 0.00 0.00 0.00 81 1014.0
20260504031817 39 290 10.0 0.0 0.00 0.00 0.00 81 1015.0
20260504030434 39 290 10.0 0.0 0.00 0.00 0.00 81 1015.0
20260504024818 39 290 10.0 0.0 0.00 0.00 0.00 81 1015.0
20260504023317 39 290 10.0 0.0 0.00 0.00 0.00 81 1015.0
20260504021816 41 290 10.0 0.0 0.00 0.00 0.00 76 1015.0
20260504020317 41 290 10.0 0.0 0.00 0.00 0.00 76 1015.0
20260504014817 41 290 9.0 0.0 0.00 0.00 0.00 70 1015.0
20260504013322 41 290 9.0 0.0 0.00 0.00 0.00 70 1015.0
20260504011933 41 290 8.0 0.0 0.00 0.00 0.00 70 1016.0
20260504010317 41 290 8.0 0.0 0.00 0.00 0.00 70 1016.0
20260504004934 41 290 9.0 0.0 0.00 0.00 0.00 70 1016.0
20260504003317 41 290 9.0 0.0 0.00 0.00 0.00 70 1016.0
20260504001817 41 290 10.0 0.0 0.00 0.00 0.00 76 1016.0
20260504000317 41 290 10.0 0.0 0.00 0.00 0.00 76 1016.0
20260503234857 41 290 10.0 0.0 0.00 0.00 0.00 76 1016.0
20260503233317 41 290 10.0 0.0 0.00 0.00 0.00 76 1016.0
20260503231820 41 290 11.0 0.0 0.00 0.00 0.00 76 1017.0
20260503230329 41 290 11.0 0.0 0.00 0.00 0.00 76 1017.0
20260503224817 41 290 10.0 0.0 0.00 0.00 0.00 76 1017.0
20260503223329 41 290 10.0 0.0 0.00 0.00 0.00 76 1017.0
20260503221834 41 290 8.0 0.0 0.00 0.00 0.00 76 1017.0
20260503220359 41 290 8.0 0.0 0.00 0.00 0.00 76 1017.0
20260503214824 41 290 10.0 0.0 0.00 0.00 0.00 76 1017.0
20260503213317 41 290 10.0 0.0 0.00 0.00 0.00 76 1017.0
20260503211817 39 290 9.0 0.0 0.00 0.00 0.00 81 1017.0
20260503210317 39 290 9.0 0.0 0.00 0.00 0.00 81 1017.0
20260503204824 39 300 7.0 0.0 0.00 0.00 0.00 81 1017.0
20260503203433 39 300 7.0 0.0 0.00 0.00 0.00 81 1017.0
20260503201817 41 310 7.0 0.0 0.00 0.00 0.00 76 1018.0
20260503200326 41 310 7.0 0.0 0.00 0.00 0.00 76 1018.0
20260503194842 41 310 5.0 0.0 0.00 0.00 0.00 76 1018.0
20260503193434 41 310 5.0 0.0 0.00 0.00 0.00 76 1018.0
20260503191817 43 300 5.0 0.0 0.00 0.00 0.00 76 1018.0
20260503190317 43 300 5.0 0.0 0.00 0.00 0.00 76 1018.0
20260503184933 41 310 5.0 0.0 0.00 0.00 0.00 76 1019.0
20260503183316 41 310 5.0 0.0 0.00 0.00 0.00 76 1019.0
20260503181817 46 0 0.0 0.0 0.00 0.00 0.00 62 1019.0